Miscellaneous Local Product
Issued by NWS Hastings, NE

Home | Current Version | Previous Version | Graphics & Text | Print | Product List | Glossary On
Versions: 1 2 3 4 5 6 7 8 9 10 11 12 13 14 15 16 17 18 19 20 21 22 23 24 25 26 27 28 29 30 31 32 33 34 35 36 37 38 39 40 41 42 43 44 45 46 47 48 49 50
000
AXUS43 KGID 230002
MISGRI

GID CWA HOURLY WEATHER ROUNDUP
NATIONAL WEATHER SERVICE HASTINGS NE
700 PM CDT FRI SEP 22 2017

NOTE: "FAIR" INDICATES FEW OR NO CLOUDS BELOW 12,000 FEET WITH NO
SIGNIFICANT WEATHER AND/OR OBSTRUCTIONS TO VISIBILITY.

...SOUTH CENTRAL NEBRASKA...

CITY           SKY/WX    TMP DP  RH WIND       PRES   REMARKS
GRAND ISLAND   CLOUDY    87  65  47 S21       29.77R
HASTINGS       CLOUDY    90  58  33 S14G25    29.79R
KEARNEY        CLOUDY    89  59  36 S23G35    29.75R
ORD            PTCLDY    89  55  31 S17G28    29.70R
YORK           PTCLDY    88  63  42 S13       29.80S
AURORA         CLOUDY    86  63  45 S14G20    29.78S
LEXINGTON      CLOUDY    90  52  27 SE15      29.73R
HOLDREGE       CLOUDY    88  55  32 SE21G26   29.75R
HEBRON         MOCLDY    91  62  38 S14G20    29.81S HX  91

...NEBRASKA PANHANDLE...

CITY           SKY/WX    TMP DP  RH WIND       PRES   REMARKS
CHADRON        CLEAR     62  40  44 NE17G24   29.86R
ALLIANCE       CLEAR     64  42  44 N9        29.83R
SCOTTSBLUFF    CLOUDY    69  43  38 E6        29.85R
SIDNEY         CLOUDY    69  45  41 N15G22    29.84R

...WESTERN AND NORTH CENTRAL NEBRASKA...

CITY           SKY/WX    TMP DP  RH WIND       PRES   REMARKS
VALENTINE      CLOUDY    67  47  48 N15       29.82R
AINSWORTH      MOCLDY    66  53  62 N16       29.81S
ONEILL         CLOUDY    69  64  85 N10       29.77R
BROKEN BOW     CLOUDY    90  55  30 S20G28    29.73R
IMPERIAL       CLOUDY    88  31  13 SW9       29.72R
NORTH PLATTE   MOCLDY    89  53  29 S12       29.70R
MCCOOK         PTCLDY    92  55  28 S23G32    29.71R HX  90

...EASTERN NEBRASKA...

CITY           SKY/WX    TMP DP  RH WIND       PRES   REMARKS
NORFOLK        PTCLDY    87  64  46 S18G26    29.73R
SO SIOUX CITY  PTCLDY    88  70  55 S18G28    29.76R HX  93
TEKAMAH        CLEAR     87  68  52 SE13      29.79R HX  90
COLUMBUS       CLOUDY    88  65  46 S15G21    29.77R HX  90
ALBION         MOCLDY    87  65  47 S16       29.75R
OMAHA EPPLEY   MOCLDY    89  67  47 S21       29.82R HX  92
OFFUTT AFB     PTCLDY    86  68  54 SE16G24   29.83R HX  90
MILLARD        PTCLDY    90  69  50 SE15      29.82S HX  95
LINCOLN        PTCLDY    89  66  46 S18G25    29.81R HX  91
NEBRASKA CITY  CLEAR     85  69  57 S17       29.87R
BEATRICE       PTCLDY    89  68  50 SE15      29.83S HX  92
FALLS CITY     CLEAR     86  67  52 S13G22    29.88R

...NORTHERN KANSAS...

CITY           SKY/WX    TMP DP  RH WIND       PRES   REMARKS
GOODLAND       PTCLDY    86  55  34 S16G25    29.75S
HILL CITY      MOCLDY    92  56  29 S22G31    29.75R HX  90
NORTON         CLEAR     90  45  20 SE16G23   29.74R
PHILLIPSBURG   CLEAR     91  55  29 SE16G26   29.76R
SMITH CENTER   CLEAR     88  61  40 S20G30    29.78R
HAYS           CLEAR     90  61  37 MISG      29.78R HX  90
RUSSELL        CLEAR     89  62  40 S24       29.79R
CONCORDIA      CLEAR     87  66  49 S15G24    29.81S
SALINA         CLEAR     92  63  38 S20G29    29.82R HX  93
TOPEKA         CLEAR     85  69  58 SE12      29.89S



USA.gov is the U.S. government's official web portal to all federal, state and local government web resources and services.